Simultaneous Nadir Overpasses (SNOs) Predictions

Prediction of SNOs between METOP-B and NOAA-19 Satellite Orbit:

Table of predicted SNOs for the next 14.0 days since TLE Epoch: 3/13/2020
Index Date (METOP-B) Time (METOP-B) Lat,Lon (METOP-B) SZA (METOP-B ) Date (NOAA-19) Time (NOAA-19) Lat,Lon (NOAA-19) SZA (NOAA-19 ) Distance(km) Time Diff (sec)
1 03/14/2020 10:27:31 -79.93,-135.23 97.30 03/14/2020 10:26:20 -79.94,-137.04 97.40 35.26 71
2 03/14/2020 11:18:14 79.85, 31.35 82.58 03/14/2020 11:17:12 79.86, 31.25 82.57 2.32 62
3 03/14/2020 12:08:55 -79.85,-161.27 97.44 03/14/2020 12:08:17 -79.85,-161.42 97.45 3.03 38
4 03/14/2020 12:59:36 79.84, 5.89 82.53 03/14/2020 12:59:12 79.85, 5.96 82.54 1.58 24
5 03/14/2020 13:50:17 -79.84, 173.28 97.48 03/14/2020 13:50:17 -79.84, 173.28 97.49 0.57 0
6 03/14/2020 14:40:57 79.86, -19.27 82.53 03/14/2020 14:41:12 79.83, -19.34 82.50 3.28 15
7 03/14/2020 15:31:39 -79.83, 147.82 97.53 03/14/2020 15:32:17 -79.82, 147.98 97.52 3.19 38
8 03/14/2020 16:22:20 79.81, -45.02 82.44 03/14/2020 16:23:13 79.84, -44.95 82.48 3.09 53
9 03/14/2020 17:13:04 -79.73, 121.52 97.71 03/14/2020 17:14:14 -79.73, 123.57 97.57 40.72 70
10 03/25/2020 11:40:59 -79.89,-153.95 101.66 03/25/2020 11:39:54 -79.87,-154.02 101.70 3.12 65
11 03/25/2020 12:31:40 79.87, 13.21 78.30 03/25/2020 12:30:51 79.88, 13.10 78.29 2.11 49
12 03/25/2020 13:22:22 -79.85,-179.69 101.75 03/25/2020 13:21:55 -79.87,-179.63 101.73 3.20 27
13 03/25/2020 14:13:02 79.86, -12.25 78.26 03/25/2020 14:12:51 79.86, -12.19 78.26 1.05 11
14 03/25/2020 15:03:43 -79.87, 155.14 101.75 03/25/2020 15:03:55 -79.86, 155.07 101.76 1.69 12
15 03/25/2020 15:54:24 79.85, -37.70 78.21 03/25/2020 15:54:52 79.87, -37.80 78.23 2.99 28
16 03/25/2020 16:45:05 -79.85, 129.69 101.80 03/25/2020 16:45:55 -79.84, 129.77 101.79 2.09 50




NCC Satellite Simultaneous Nadir Overpasses (SNOs) Prediction Service
